Погода в Малышева

Россия / Свердловская область     57°07′00″N   61°23′42″E
темп.,
°C
ветер,
м/с
пор.,
м/с
влажн.,
%
обл.,
%
осадки,
мм/ч
давл.,
гПа
погр.,
м
14 апреля, ср
ср1423:00+8юз389228 0.0 1034168
02:00+7зюз31193100 0.0 1032243
05:00+7з31196100 0.0 1032334
08:00+9з498982 0.0 1032389
11:00+14з466854 0.0 1031568
14:00+18з46547 0.0 1029960
17:00+18з465215 0.0 10281022
20:00+12з2477100 0.0 102858
15 апреля, чт
чт1523:00+10з2590100 0.0 102890
02:00+8зюз249310 0.0 102771
05:00+8зюз25936 0.0 102688
08:00+10зюз39835 0.0 1025273
11:00+16зюз58545 0.0 1023797
14:00+18зюз58345 0.0 10211234
17:00+18зюз59385 0.0 10201375
20:00+12зюз38615 0.0 1019155
16 апреля, пт
пт1623:00+10зюз310800 0.0 1019219
02:00+9з311866 0.0 1018272
05:00+6ссв4888100 0.0 1021590
08:00+3ссв4995100 0.4 1024715
11:00+6св5654100 0.6 10251183
14:00+8св454385 0.0 10261527
17:00+8св33365 0.0 10251649
20:00+5всв22545 0.0 102622
17 апреля, сб
сб1723:00+2всв11605 0.0 102610
02:00+1сз11670 0.0 102510
05:000зсз23730 0.0 102555
08:00+3сз49550 0.0 1024479
11:00+7сз57455 0.0 10231566
14:00+9сз5838100 0.0 10212248
17:00+9сз583989 0.0 10202101
20:00+5сз495751 0.0 1020364
18 апреля, вс
вс1823:00+3зсз4116970 0.0 1020542
02:00+2зсз411775 0.0 1019631
05:00+1з4118219 0.0 1018519
08:00+3сз6137012 0.1 10161466
11:00+1ссз71148100 0.3 10202024
14:00+1ссв81050100 0.2 10232012
17:00+1ссв693216 0.2 10272032
20:00−2ссв49445 0.0 1030619